CZ-2D DEB

Satellite information

Favourite Embed

Satellite Type and Status

DEBRISIN ORBIT

Key statistics

Satellite CZ-2D DEB at a glance.

Uptime

2593

Days in orbit

Revolutions

≈ 14.9

Per day

Orbit

SSO

Sun Synchronous Orbit

Inclination

98.2

Latest

Satellite identification and parameters

Extended collection of information and parameters for CZ-2D DEB.

Object identification

Identified? True

Debris? True

Object name: CZ-2D DEB

International designator: 2018-048E

Object number (NORAD): 43490

Object ID (CCSDS): 43490

Country: PEOPLES REPUBLIC OF CHINA (PRC)

Current information (Y/N): Y

RCS size: SMALL

Orbital parameters

Period: 96.537 minutes

Inclination: 98.2345 deg

SMA: 6970.915 km

Apoapsis: 610.316 km

Periapsis: 575.244 km

RAAN: 333.8474 deg

Eccentricy: 0.0025156

Argument of periapsis: 196.6671 deg

Mean anomaly: 163.3722 deg

Mean motion: 14.91653854 rev/day

Mean motion (dot): 0.00004332 rev/day2

B* drag term: 0.00043462 1/REarth

Two-line elements (TLE)

Creation date: July 7, 2025, 11:06 p.m.

Reference frame: TEME

Reference center: EARTH

Epoch: July 7, 2025, 2:54 p.m. UTC

TLE line 0: 0 CZ-2D DEB

TLE line 1: 1 43490U 18048E 25188.62138164 .00004332 00000-0 43462-3 0 9990

TLE line 2: 2 43490 98.2345 333.8474 0025156 196.6671 163.3722 14.91653854382733

Live tracking on map

Real-time ground track for satellite CZ-2D DEB.

In-orbit conjunctions

A list of the most updated potential collisions computed for object CZ-2D DEB.

Target Orbit TCA Probability of collision Miss distance Type
CZ-6A DEB LEO 2024-11-25 06:01:48 0.000304816 316.0 (m) DEBRIS
COSMOS 2251 DEB LEO 2024-11-10 19:14:56 0.0001250128 506.0 (m) DEBRIS

Associated space launch

Gaofen is a series of civilian Earth observation satellites developed and launched for the China High-definition Earth Observation System (CHEOS), a state-sponsored programme aimed to develop a near-real time, all-weather, global surveillance network consisting of satellite, near-space (stratosphere) airships, and aerial observation platforms. Luojia-1 is a 6U Earth observation cubesat prototype.

CZ-2D DEB was lifted into orbit during the mission ‘Long March 2D | Gaofen 6 & Luojia-1’, on board a Long March 2D space rocket.

The launch took place on June 2, 2018, 4:13 a.m. from Launch Area 4 (SLS-2 / 603).

For more information about the launch, click the button.

Launch to space Long March 2D | Gaofen 6 & Luojia-1
Long March 2D | Gaofen 6 & Luojia-1

Agency: N/A

Status: Launch Successful

Launch date: June 2, 2018, 4:13 a.m. UTC

Rocket: Long March 2D

Launch pad: Launch Area 4 (SLS-2 / 603)

Location: Jiuquan Satellite Launch Center, People's Republic of China

...

Latest news about this satellite

There are no fresh news available about this satellite. Check back as we update our databases every day.


Newsletter sign-up

Weekly statistics, charts and insights to help you stay on top of the space industry.